Location: Unspecified
(0.0000°N, 0.0000°E)
Time: 04:38:21
(UTC+00:00)

Explorer 7 - Visible Passes

Search period start: 21 August 2017 00:00
Search period end: 31 August 2017 00:00
Orbit: 486 x 684 km, 50.3° (Epoch: 20 August)

Date Brightness Start Highest point End Pass type
(mag) Time Alt. Az. Time Alt. Az. Time Alt. Az.
21 Aug 8.2 19:22:16 10° WSW 19:26:08 39° NW 19:30:14 10° NNE visible
22 Aug 9.6 19:28:57 10° W 19:31:55 19° NW 19:34:59 10° N visible
25 Aug 10.1 04:23:33 10° NNE 04:25:54 14° NE 04:28:14 10° E visible
26 Aug 9.2 04:27:41 10° N 04:31:42 27° NE 04:35:35 10° ESE visible
27 Aug 7.8 04:32:46 10° NNW 04:37:28 55° NE 04:41:56 10° SE visible
28 Aug 7.0 04:40:55 30° NW 04:43:10 70° SW 04:47:42 10° SSE visible
29 Aug 7.8 04:48:40 33° WSW 04:48:50 33° SW 04:52:57 10° S visible
30 Aug 8.9 04:55:58 15° SSW 04:55:58 15° SSW 04:57:29 10° SSW visible
